| time (UTC) | temp C | wind direction | speed KPH | gust KPH | rain 1hr cm | rain 24hr cm | rain mn cm | humidity % | barometer mb |
| 20260505073101 | 10 | 0 | 0.0 | 0.0 | 0.00 | 0.00 | 0.00 | 91 | 1009.8 |
| 20260505071600 | 10 | 0 | 0.0 | 0.0 | 0.00 | 0.00 | 0.00 | 90 | 1009.7 |
| 20260505070100 | 10 | 0 | 0.0 | 0.0 | 0.00 | 0.00 | 0.00 | 91 | 1009.8 |
| 20260505064600 | 10 | 0 | 0.0 | 0.0 | 0.00 | 0.00 | 0.00 | 90 | 1009.9 |
| 20260505063102 | 10 | 0 | 0.0 | 0.0 | 0.00 | 0.00 | 0.00 | 90 | 1009.9 |
| 20260505061605 | 11 | 0 | 0.0 | 0.0 | 0.00 | 0.00 | 0.00 | 90 | 1010.0 |
| 20260505060059 | 11 | 0 | 0.0 | 0.0 | 0.00 | 0.00 | 0.00 | 90 | 1010.1 |
| 20260505054601 | 11 | 0 | 0.0 | 0.0 | 0.00 | 0.00 | 0.00 | 90 | 1010.1 |
| 20260505053107 | 11 | 0 | 0.0 | 0.0 | 0.00 | 0.00 | 0.00 | 90 | 1010.0 |
| 20260505051601 | 11 | 0 | 0.0 | 0.0 | 0.00 | 0.00 | 0.00 | 89 | 1010.0 |
| 20260505050128 | 11 | 0 | 0.0 | 0.0 | 0.00 | 0.00 | 0.00 | 89 | 1009.9 |
| 20260505041607 | 12 | 0 | 0.0 | 0.0 | 0.00 | 0.00 | 0.00 | 89 | 1009.3 |
| 20260505034602 | 12 | 0 | 0.0 | 0.0 | 0.00 | 0.00 | 0.00 | 88 | 1009.1 |
| 20260505033059 | 12 | 0 | 0.0 | 0.0 | 0.00 | 0.00 | 0.00 | 88 | 1009.0 |
| 20260505031600 | 13 | 0 | 0.0 | 0.0 | 0.00 | 0.00 | 0.00 | 87 | 1009.0 |
| 20260505030100 | 13 | 0 | 0.0 | 0.0 | 0.00 | 0.00 | 0.00 | 87 | 1009.0 |
| 20260505024559 | 13 | 0 | 0.0 | 0.0 | 0.00 | 0.00 | 0.00 | 86 | 1008.9 |
| 20260505023059 | 14 | 0 | 0.0 | 0.0 | 0.00 | 0.00 | 0.00 | 86 | 1008.8 |
| 20260505021602 | 14 | 0 | 0.0 | 0.0 | 0.00 | 0.00 | 0.00 | 85 | 1008.8 |
| 20260505020058 | 15 | 0 | 0.0 | 0.0 | 0.00 | 0.00 | 0.00 | 84 | 1008.7 |
| 20260505014626 | 15 | 0 | 0.0 | 0.0 | 0.00 | 0.00 | 0.00 | 83 | 1008.7 |
| 20260505013059 | 16 | 0 | 0.0 | 0.0 | 0.00 | 0.00 | 0.00 | 83 | 1008.7 |
| 20260505011605 | 16 | 0 | 0.0 | 0.0 | 0.00 | 0.00 | 0.00 | 81 | 1008.7 |
| 20260505010059 | 17 | 0 | 0.0 | 0.0 | 0.00 | 0.00 | 0.00 | 80 | 1008.7 |
| 20260505004559 | 17 | 0 | 0.0 | 0.0 | 0.00 | 0.00 | 0.00 | 77 | 1008.6 |
| 20260505003101 | 18 | 0 | 0.0 | 1.6 | 0.00 | 0.00 | 0.00 | 74 | 1008.4 |
| 20260505001631 | 18 | 0 | 0.0 | 1.6 | 0.00 | 0.00 | 0.00 | 72 | 1008.4 |
| 20260505000136 | 20 | 0 | 0.0 | 1.6 | 0.00 | 0.00 | 0.00 | 70 | 1008.4 |
| 20260504234613 | 21 | 0 | 0.0 | 3.2 | 0.00 | 0.00 | 0.00 | 67 | 1008.6 |
| 20260504233109 | 22 | 0 | 0.0 | 3.2 | 0.00 | 0.00 | 0.00 | 64 | 1008.4 |
| 20260504231557 | 23 | 360 | 0.0 | 4.8 | 0.00 | 0.00 | 0.00 | 60 | 1008.3 |
| 20260504230056 | 23 | 360 | 0.0 | 8.0 | 0.00 | 0.00 | 0.00 | 58 | 1008.3 |
| 20260504224611 | 24 | 360 | 3.2 | 12.9 | 0.00 | 0.00 | 0.00 | 56 | 1008.4 |
| 20260504223100 | 24 | 0 | 0.0 | 4.8 | 0.00 | 0.00 | 0.00 | 59 | 1008.6 |
| 20260504221559 | 25 | 0 | 1.6 | 4.8 | 0.00 | 0.00 | 0.00 | 53 | 1008.7 |
| 20260504220101 | 25 | 0 | 1.6 | 8.0 | 0.00 | 0.00 | 0.00 | 52 | 1008.8 |
| 20260504214602 | 26 | 269 | 4.8 | 16.1 | 0.00 | 0.00 | 0.00 | 45 | 1008.7 |
| 20260504213130 | 25 | 227 | 3.2 | 24.1 | 0.00 | 0.00 | 0.00 | 45 | 1008.9 |
| 20260504211605 | 26 | 355 | 6.4 | 17.7 | 0.00 | 0.00 | 0.00 | 45 | 1008.9 |
| 20260504210058 | 25 | 321 | 4.8 | 16.1 | 0.00 | 0.00 | 0.00 | 49 | 1009.0 |
| 20260504204558 | 25 | 348 | 4.8 | 19.3 | 0.00 | 0.00 | 0.00 | 50 | 1009.1 |
| 20260504203121 | 25 | 296 | 4.8 | 16.1 | 0.00 | 0.00 | 0.00 | 52 | 1009.3 |
| 20260504201558 | 24 | 329 | 6.4 | 16.1 | 0.00 | 0.00 | 0.00 | 55 | 1009.4 |
| 20260504200057 | 23 | 355 | 6.4 | 20.9 | 0.00 | 0.00 | 0.00 | 52 | 1009.6 |
| 20260504194606 | 23 | 338 | 9.7 | 24.1 | 0.00 | 0.00 | 0.00 | 52 | 1009.9 |
| 20260504193111 | 22 | 309 | 6.4 | 17.7 | 0.00 | 0.00 | 0.00 | 53 | 1010.1 |
| 20260504191600 | 22 | 0 | 6.4 | 17.7 | 0.00 | 0.00 | 0.00 | 59 | 1010.5 |
| 20260504190115 | 21 | 189 | 6.4 | 16.1 | 0.00 | 0.00 | 0.00 | 61 | 1010.7 |
| 20260504184606 | 20 | 0 | 1.6 | 9.7 | 0.00 | 0.00 | 0.00 | 66 | 1011.3 |
| 20260504183056 | 21 | 244 | 3.2 | 16.1 | 0.00 | 0.00 | 0.00 | 56 | 1011.9 |
| 20260504181558 | 21 | 360 | 3.2 | 24.1 | 0.00 | 0.00 | 0.00 | 53 | 1011.2 |
| 20260504180131 | 22 | 313 | 8.0 | 25.7 | 0.00 | 0.00 | 0.00 | 52 | 1010.7 |
| 20260504174612 | 22 | 336 | 4.8 | 17.7 | 0.00 | 0.00 | 0.00 | 52 | 1010.5 |
| 20260504173106 | 22 | 302 | 8.0 | 22.5 | 0.00 | 0.00 | 0.00 | 56 | 1010.6 |
| 20260504171558 | 21 | 0 | 4.8 | 16.1 | 0.00 | 0.00 | 0.00 | 54 | 1010.8 |
| 20260504140109 | 14 | 0 | 3.2 | 12.9 | 0.00 | 0.00 | 0.00 | 74 | 1014.0 |
| 20260504110118 | 5 | 0 | 0.0 | 1.6 | 0.00 | 0.00 | 0.00 | 90 | 1013.2 |
| 20260504100106 | 5 | 0 | 0.0 | 0.0 | 0.00 | 0.00 | 0.00 | 89 | 1013.2 |
| 20260504090123 | 5 | 0 | 0.0 | 0.0 | 0.00 | 0.00 | 0.00 | 88 | 1013.8 |
| 20260504081559 | 6 | 0 | 0.0 | 1.6 | 0.00 | 0.00 | 0.00 | 88 | 1013.9 |